Torna al catalogo

ARABSAT 1B

AttivoComunicazioniGEO
NORAD 15825·PAYLOAD·🇦🇪 UAE🇸🇦 Saudi Arabia

Lanciato Jun 17, 1985 da Cape Canaveral Space Force Station

Loading…

TLE

AggiornatoSource: Space-Track

Epoca: Sep 14, 2026, 12:14 UTC

1 15825U 85048C   26257.51013353 -.00000166  00000-0  00000-0 0  9993
2 15825  12.2854 333.4861 0011173  20.9248 336.6611  1.00385587136329

Traccia ARABSAT 1B in tempo reale con AllMySat

Download on the App Store